Stündliche Wetter Otradnoe

Heute, 14 April, Mittwoch

Zeit Temperatur Niederschläge Wind Luftdruck Luftfeuchtigkeit
00:00 +10°C° 0 mm 2 m/S 762 mmHg 60%
01:00 +9°C° 0 mm 2 m/S 762 mmHg 62%
02:00 +9°C° 0 mm 2 m/S 762 mmHg 64%
03:00 +8°C° 0 mm 2 m/S 761 mmHg 66%
04:00 +8°C° 0 mm 2 m/S 761 mmHg 68%
05:00 +8°C° 0 mm 3 m/S 761 mmHg 70%
06:00 +8°C° 0 mm 3 m/S 761 mmHg 72%
07:00 +10°C° 0 mm 3 m/S 761 mmHg 66%
08:00 +12°C° 0 mm 4 m/S 760 mmHg 59%
09:00 +14°C° 0 mm 5 m/S 760 mmHg 53%
10:00 +15°C° 0 mm 5 m/S 760 mmHg 47%
11:00 +17°C° 0 mm 6 m/S 759 mmHg 40%
12:00 +19°C° 0 mm 6 m/S 759 mmHg 34%
13:00 +20°C° 0 mm 6 m/S 759 mmHg 32%
14:00 +20°C° 0 mm 6 m/S 758 mmHg 30%
15:00 +20°C° 0 mm 6 m/S 758 mmHg 28%
16:00 +19°C° 0 mm 5 m/S 758 mmHg 33%
17:00 +18°C° 0 mm 4 m/S 757 mmHg 37%
18:00 +17°C° 0 mm 3 m/S 757 mmHg 42%
19:00 +16°C° 0 mm 3 m/S 757 mmHg 47%
20:00 +14°C° 0 mm 3 m/S 757 mmHg 52%
21:00 +12°C° 0 mm 3 m/S 757 mmHg 57%
22:00 +12°C° 0 mm 3 m/S 757 mmHg 60%
23:00 +12°C° 0 mm 2 m/S 756 mmHg 63%

Morgen, 15 April, Donnerstag

Zeit Temperatur Niederschläge Wind Luftdruck Luftfeuchtigkeit
00:00 +10°C° 0 mm 2 m/S 756 mmHg 66%
01:00 +10°C° 0 mm 2 m/S 756 mmHg 69%
02:00 +9°C° 0 mm 2 m/S 756 mmHg 71%
03:00 +9°C° 0 mm 3 m/S 756 mmHg 73%
04:00 +9°C° 0 mm 3 m/S 756 mmHg 74%
05:00 +9°C° 0 mm 3 m/S 755 mmHg 75%
06:00 +9°C° 0 mm 3 m/S 755 mmHg 76%
07:00 +11°C° 0 mm 3 m/S 755 mmHg 69%
08:00 +12°C° 0 mm 3 m/S 755 mmHg 62%
09:00 +14°C° 0 mm 4 m/S 755 mmHg 54%
10:00 +17°C° 0 mm 4 m/S 755 mmHg 49%
11:00 +18°C° 0 mm 4 m/S 754 mmHg 44%
12:00 +20°C° 0 mm 4 m/S 754 mmHg 38%
13:00 +21°C° 0 mm 4 m/S 754 mmHg 35%
14:00 +22°C° 0 mm 4 m/S 754 mmHg 31%
15:00 +22°C° 0 mm 4 m/S 753 mmHg 28%
16:00 +21°C° 0 mm 3 m/S 753 mmHg 32%
17:00 +20°C° 0 mm 3 m/S 753 mmHg 36%
18:00 +19°C° 0 mm 3 m/S 753 mmHg 40%
19:00 +18°C° 0 mm 3 m/S 753 mmHg 43%
20:00 +16°C° 0 mm 2 m/S 753 mmHg 46%
21:00 +15°C° 0 mm 2 m/S 753 mmHg 49%
22:00 +14°C° 0 mm 2 m/S 753 mmHg 51%
23:00 +14°C° 0 mm 2 m/S 753 mmHg 53%

übermorgen, 16 April, Freitag

Zeit Temperatur Niederschläge Wind Luftdruck Luftfeuchtigkeit
00:00 +13°C° 0 mm 2 m/S 753 mmHg 55%
01:00 +13°C° 0 mm 2 m/S 753 mmHg 57%
02:00 +12°C° 0 mm 2 m/S 753 mmHg 59%
03:00 +12°C° 0 mm 2 m/S 753 mmHg 60%
04:00 +12°C° 0 mm 2 m/S 753 mmHg 62%
05:00 +12°C° 0 mm 2 m/S 753 mmHg 63%
06:00 +10°C° 0 mm 2 m/S 753 mmHg 64%
07:00 +12°C° 0 mm 3 m/S 754 mmHg 60%
08:00 +13°C° 0 mm 3 m/S 754 mmHg 56%
09:00 +14°C° 0 mm 3 m/S 754 mmHg 52%
10:00 +16°C° 0 mm 3 m/S 754 mmHg 48%
11:00 +17°C° 0 mm 4 m/S 754 mmHg 45%
12:00 +19°C° 0 mm 4 m/S 754 mmHg 42%
13:00 +19°C° 0 mm 4 m/S 754 mmHg 40%
14:00 +20°C° 0 mm 4 m/S 754 mmHg 38%
15:00 +20°C° 0 mm 4 m/S 754 mmHg 37%
16:00 +19°C° 0 mm 3 m/S 754 mmHg 40%
17:00 +18°C° 0 mm 3 m/S 754 mmHg 44%
18:00 +18°C° 0 mm 2 m/S 754 mmHg 48%
19:00 +17°C° 0 mm 2 m/S 755 mmHg 50%
20:00 +16°C° 0 mm 2 m/S 755 mmHg 53%
21:00 +14°C° 0 mm 2 m/S 755 mmHg 55%
22:00 +14°C° 0 mm 2 m/S 755 mmHg 59%
23:00 +12°C° 0 mm 3 m/S 755 mmHg 63%

17 April, Samstag

Zeit Temperatur Niederschläge Wind Luftdruck Luftfeuchtigkeit
00:00 +11°C° 0 mm 3 m/S 755 mmHg 67%
01:00 +11°C° 0 mm 3 m/S 755 mmHg 71%
02:00 +10°C° 0 mm 3 m/S 755 mmHg 75%
03:00 +9°C° 0 mm 3 m/S 756 mmHg 80%
04:00 +9°C° 0 mm 3 m/S 756 mmHg 82%
05:00 +9°C° 0 mm 3 m/S 756 mmHg 84%
06:00 +9°C° 0 mm 3 m/S 756 mmHg 85%
07:00 +10°C° 0 mm 4 m/S 756 mmHg 79%
08:00 +12°C° 0 mm 5 m/S 756 mmHg 72%
09:00 +14°C° 0 mm 5 m/S 756 mmHg 65%
10:00 +15°C° 0 mm 6 m/S 756 mmHg 60%
11:00 +16°C° 0 mm 6 m/S 756 mmHg 55%
12:00 +17°C° 0 mm 6 m/S 756 mmHg 50%
13:00 +17°C° 0 mm 6 m/S 756 mmHg 48%
14:00 +19°C° 0 mm 6 m/S 756 mmHg 46%
15:00 +19°C° 0 mm 6 m/S 756 mmHg 44%
16:00 +17°C° 0 mm 6 m/S 756 mmHg 47%
17:00 +17°C° 0 mm 6 m/S 756 mmHg 51%
18:00 +16°C° 0 mm 6 m/S 756 mmHg 54%
19:00 +14°C° 0 mm 6 m/S 756 mmHg 57%
20:00 +13°C° 0 mm 5 m/S 757 mmHg 60%
21:00 +12°C° 0 mm 5 m/S 757 mmHg 63%
22:00 +10°C° 0 mm 5 m/S 757 mmHg 62%
23:00 +11°C° 0 mm 4 m/S 757 mmHg 60%

18 April, Sonntag

Zeit Temperatur Niederschläge Wind Luftdruck Luftfeuchtigkeit
00:00 +10°C° 0 mm 4 m/S 758 mmHg 59%
01:00 +8°C° 0 mm 4 m/S 758 mmHg 59%
02:00 +8°C° 0 mm 4 m/S 758 mmHg 60%
03:00 +7°C° 0 mm 4 m/S 758 mmHg 60%
04:00 +7°C° 0 mm 4 m/S 758 mmHg 61%
05:00 +6°C° 0 mm 5 m/S 758 mmHg 62%
06:00 +6°C° 0 mm 5 m/S 758 mmHg 63%
07:00 +7°C° 0 mm 5 m/S 758 mmHg 58%
08:00 +8°C° 0 mm 6 m/S 758 mmHg 52%
09:00 +9°C° 0 mm 7 m/S 758 mmHg 47%
10:00 +11°C° 0 mm 7 m/S 758 mmHg 45%
11:00 +13°C° 0 mm 6 m/S 758 mmHg 43%
12:00 +14°C° 0 mm 6 m/S 758 mmHg 40%
13:00 +14°C° 0 mm 6 m/S 758 mmHg 39%
14:00 +15°C° 0 mm 6 m/S 758 mmHg 38%
15:00 +15°C° 0 mm 6 m/S 758 mmHg 37%
16:00 +14°C° 0 mm 6 m/S 758 mmHg 39%
17:00 +14°C° 0 mm 6 m/S 758 mmHg 41%
18:00 +13°C° 0 mm 5 m/S 758 mmHg 43%
19:00 +12°C° 0 mm 5 m/S 758 mmHg 47%
20:00 +10°C° 0 mm 5 m/S 758 mmHg 51%
21:00 +10°C° 0 mm 4 m/S 759 mmHg 56%
22:00 +8°C° 0 mm 4 m/S 759 mmHg 58%
23:00 +8°C° 0 mm 4 m/S 759 mmHg 61%

19 April, Montag

Zeit Temperatur Niederschläge Wind Luftdruck Luftfeuchtigkeit
00:00 +7°C° 0 mm 4 m/S 759 mmHg 63%
01:00 +7°C° 0 mm 5 m/S 759 mmHg 65%
02:00 +6°C° 0 mm 5 m/S 759 mmHg 66%
03:00 +6°C° 0 mm 5 m/S 759 mmHg 68%
04:00 +5°C° 0 mm 6 m/S 760 mmHg 70%
05:00 +4°C° 0 mm 6 m/S 760 mmHg 72%
06:00 +4°C° 0 mm 7 m/S 760 mmHg 75%
07:00 +5°C° 0 mm 7 m/S 760 mmHg 67%
08:00 +5°C° 0 mm 7 m/S 760 mmHg 60%
09:00 +6°C° 0 mm 8 m/S 760 mmHg 52%
10:00 +6°C° 0 mm 8 m/S 760 mmHg 49%
11:00 +7°C° 0 mm 8 m/S 760 mmHg 45%
12:00 +7°C° 0 mm 9 m/S 760 mmHg 41%
13:00 +7°C° 0 mm 8 m/S 760 mmHg 41%
14:00 +9°C° 0 mm 8 m/S 760 mmHg 41%
15:00 +9°C° 0 mm 8 m/S 760 mmHg 41%
16:00 +9°C° 0 mm 7 m/S 760 mmHg 45%
17:00 +9°C° 0 mm 7 m/S 760 mmHg 49%
18:00 +8°C° 0 mm 7 m/S 760 mmHg 54%
19:00 +8°C° 0 mm 6 m/S 760 mmHg 56%
20:00 +7°C° 0 mm 6 m/S 760 mmHg 58%
21:00 +5°C° 0 mm 6 m/S 761 mmHg 60%
22:00 +4°C° 0 mm 6 m/S 761 mmHg 58%
23:00 +4°C° 0 mm 6 m/S 761 mmHg 57%
Mehr zeigen

Wir brauchen deine Erlaubnis

Meteoprog und unser Service Anbieter werden persönliche Daten aufbewahren, so wie Cookies, Geräte Bezeichnung oder ähnliche Technologien von deinem Gerät und Prozess, so wie Persönliche Daten Inhalte und Werbungen, genauso wie social Media und den Verkehr zu analysieren.

  • Aufbewahrung und/oder Zugang zu deiner Geräte Informationen.

    Cookies, Geräte Bezeichnung oder andere Informationen, können aufbewahrt oder Zugang zu deinem Gerät erhalten, für den Grund, der oben angegeben wird.

  • Personalisierte Werbung und Inhalte, Messungen, Einblick in das Publikum und Produkt Entwicklung.

    Werbungen und Inhalte können personalisiert werden, basierend auf ein Profil. Mehr Daten können besser personalisierte Werbungen und Inhalte hinzufügen. Werbung und Inhalte können gezeigt und gemessen werden. Einblicke über das Publikum, welche die Werbung gesehen haben und den Inhalt, können abgeleitet werden. So wie Daten können genutzt werden, um es zu verbessern oder die Benutzer Erfahrung zu verbessern das System und die Software.

Wenn du “Ich stimme zu” klickst, erlaubst du uns, die Cookies zu benutzen die Geräte Bezeichnung, den Web oder ähnliche Technologien zu benutzen. Deine Settings, können in deinem Gerät bei deinem Browser geändert werden.

Für den bestimmten Zweck, berechtigten Interessen beruhen darauf, mehr als auf den Inhalt. Du kannst mehr darüber in unseren Privaten und Cookie Politik lesen.